Date_Time,Julian_Date,Latitude,Longitude,Instrument_Depth,U,V,Speed,Direction
(yyyy-mm-dd hh:mn:ss UTC),(JD),(+ deg. North),(+ deg. East),(m),(cm/s),(cm/s),(cm/s),(deg True)
1984-10-18 06:48:00 UTC,2445991.783333,25.7150,-84.8850,0738,-0.15,1.20,1.2093,352.8750
1984-10-18 07:18:00 UTC,2445991.804167,25.7150,-84.8850,0738,-0.50,3.60,3.6346,352.0928
1984-10-18 07:48:00 UTC,2445991.825000,25.7150,-84.8850,0738,-0.28,6.05,6.0565,357.3502
1984-10-18 08:18:00 UTC,2445991.845833,25.7150,-84.8850,0738,-0.25,4.20,4.2074,356.5936
1984-10-18 08:48:00 UTC,2445991.866667,25.7150,-84.8850,0738,-0.10,2.43,2.4321,357.6435
1984-10-18 09:18:00 UTC,2445991.887500,25.7150,-84.8850,0738,0.00,1.80,1.8000,0.0000
1984-10-18 09:48:00 UTC,2445991.908333,25.7150,-84.8850,0738,0.23,3.63,3.6373,3.6255
1984-10-18 10:18:00 UTC,2445991.929167,25.7150,-84.8850,0738,0.40,5.43,5.4447,4.2131
1984-10-18 10:48:00 UTC,2445991.950000,25.7150,-84.8850,0738,1.90,8.90,9.1005,12.0508
1984-10-18 11:18:00 UTC,2445991.970833,25.7150,-84.8850,0738,1.03,7.20,7.2733,8.1412
1984-10-18 11:48:00 UTC,2445991.991667,25.7150,-84.8850,0738,1.93,8.28,8.5020,13.1209
1984-10-18 12:18:00 UTC,2445992.012500,25.7150,-84.8850,0738,1.68,7.10,7.2961,13.3125
1984-10-18 12:48:00 UTC,2445992.033333,25.7150,-84.8850,0738,1.48,5.90,6.0828,14.0819
1984-10-18 13:18:00 UTC,2445992.054167,25.7150,-84.8850,0738,1.30,5.30,5.4571,13.7816
1984-10-18 13:48:00 UTC,2445992.075000,25.7150,-84.8850,0738,1.33,4.68,4.8653,15.8645
1984-10-18 14:18:00 UTC,2445992.095833,25.7150,-84.8850,0738,2.23,5.65,6.0742,21.5387
1984-10-18 14:48:00 UTC,2445992.116667,25.7150,-84.8850,0738,1.73,3.88,4.2482,24.0310
1984-10-18 15:18:00 UTC,2445992.137500,25.7150,-84.8850,0738,2.00,4.40,4.8332,24.4440
1984-10-18 15:48:00 UTC,2445992.158333,25.7150,-84.8850,0738,2.10,4.40,4.8754,25.5139
1984-10-18 16:18:00 UTC,2445992.179167,25.7150,-84.8850,0738,2.20,4.30,4.8301,27.0956
1984-10-18 16:48:00 UTC,2445992.200000,25.7150,-84.8850,0738,3.15,6.55,7.2681,25.6836
1984-10-18 17:18:00 UTC,2445992.220833,25.7150,-84.8850,0738,3.50,7.05,7.8710,26.4023
1984-10-18 17:48:00 UTC,2445992.241667,25.7150,-84.8850,0738,2.27,4.30,4.8624,27.8299
1984-10-18 18:18:00 UTC,2445992.262500,25.7150,-84.8850,0738,1.90,3.13,3.6615,31.2590
1984-10-18 18:48:00 UTC,2445992.283333,25.7150,-84.8850,0738,1.85,3.85,4.2714,25.6652
1984-10-18 19:18:00 UTC,2445992.304167,25.7150,-84.8850,0738,1.45,2.63,3.0032,28.8693
1984-10-18 19:48:00 UTC,2445992.325000,25.7150,-84.8850,0738,3.00,5.25,6.0467,29.7449
1984-10-18 20:18:00 UTC,2445992.345833,25.7150,-84.8850,0738,1.23,2.10,2.4337,30.3581
1984-10-18 20:48:00 UTC,2445992.366667,25.7150,-84.8850,0738,1.53,2.63,3.0427,30.1887
1984-10-18 21:18:00 UTC,2445992.387500,25.7150,-84.8850,0738,0.50,1.10,1.2083,24.4440
1984-10-18 21:48:00 UTC,2445992.408333,25.7150,-84.8850,0738,0.00,0.00,0.0000,0.0000
1984-10-18 22:18:00 UTC,2445992.429167,25.7150,-84.8850,0738,0.68,1.73,1.8588,21.4580
1984-10-18 22:48:00 UTC,2445992.450000,25.7150,-84.8850,0738,0.23,0.55,0.5962,22.6938
1984-10-18 23:18:00 UTC,2445992.470833,25.7150,-84.8850,0738,0.10,1.80,1.8028,3.1798
1984-10-18 23:48:00 UTC,2445992.491667,25.7150,-84.8850,0738,0.13,0.60,0.6139,12.2251
1984-10-19 00:18:00 UTC,2445992.512500,25.7150,-84.8850,0738,0.03,0.60,0.6007,2.8624
1984-10-19 00:48:00 UTC,2445992.533333,25.7150,-84.8850,0738,0.03,0.60,0.6007,2.8624
1984-10-19 01:18:00 UTC,2445992.554167,25.7150,-84.8850,0738,0.00,0.00,0.0000,0.0000
1984-10-19 01:48:00 UTC,2445992.575000,25.7150,-84.8850,0738,0.00,1.20,1.2000,0.0000
1984-10-19 02:18:00 UTC,2445992.595833,25.7150,-84.8850,0738,-0.05,1.20,1.2010,357.6140
1984-10-19 02:48:00 UTC,2445992.616667,25.7150,-84.8850,0738,-0.15,1.20,1.2093,352.8750
1984-10-19 03:18:00 UTC,2445992.637500,25.7150,-84.8850,0738,-0.20,1.20,1.2166,350.5377
1984-10-19 03:48:00 UTC,2445992.658333,25.7150,-84.8850,0738,-1.20,2.10,2.4187,330.2551
1984-10-19 04:18:00 UTC,2445992.679167,25.7150,-84.8850,0738,-0.10,0.15,0.1803,326.3099
1984-10-19 04:48:00 UTC,2445992.700000,25.7150,-84.8850,0738,-0.95,2.20,2.3964,336.6444
1984-10-19 05:18:00 UTC,2445992.720833,25.7150,-84.8850,0738,-2.00,4.40,4.8332,335.5561
1984-10-19 05:48:00 UTC,2445992.741667,25.7150,-84.8850,0738,-3.08,7.93,8.5071,338.7739
1984-10-19 06:18:00 UTC,2445992.762500,25.7150,-84.8850,0738,-2.18,5.65,6.0560,338.9014
1984-10-19 06:48:00 UTC,2445992.783333,25.7150,-84.8850,0738,-0.80,2.90,3.0083,344.5779
1984-10-19 07:18:00 UTC,2445992.804167,25.7150,-84.8850,0738,-1.15,4.10,4.2582,344.3318
1984-10-19 07:48:00 UTC,2445992.825000,25.7150,-84.8850,0738,-0.53,1.73,1.8094,342.9671
1984-10-19 08:18:00 UTC,2445992.845833,25.7150,-84.8850,0738,-0.58,1.05,1.1995,331.0846
1984-10-19 08:48:00 UTC,2445992.866667,25.7150,-84.8850,0738,-0.90,2.88,3.0173,342.6460
1984-10-19 09:18:00 UTC,2445992.887500,25.7150,-84.8850,0738,-0.45,1.15,1.2349,338.6294
1984-10-19 09:48:00 UTC,2445992.908333,25.7150,-84.8850,0738,-0.68,1.65,1.7846,337.6024
1984-10-19 10:18:00 UTC,2445992.929167,25.7150,-84.8850,0738,-1.80,4.50,4.8466,338.1986
1984-10-19 10:48:00 UTC,2445992.950000,25.7150,-84.8850,0738,-1.60,3.95,4.2617,337.9489
1984-10-19 11:18:00 UTC,2445992.970833,25.7150,-84.8850,0738,-2.28,3.60,4.2613,327.6526
1984-10-19 11:48:00 UTC,2445992.991667,25.7150,-84.8850,0738,-1.30,2.07,2.4444,327.8704
1984-10-19 12:18:00 UTC,2445993.012500,25.7150,-84.8850,0738,-2.13,3.68,4.2520,329.9376
1984-10-19 12:48:00 UTC,2445993.033333,25.7150,-84.8850,0738,-2.20,3.68,4.2875,329.1279
1984-10-19 13:18:00 UTC,2445993.054167,25.7150,-84.8850,0738,-1.80,1.65,2.4418,312.5104
1984-10-19 13:48:00 UTC,2445993.075000,25.7150,-84.8850,0738,-1.35,1.20,1.8062,311.6335
1984-10-19 14:18:00 UTC,2445993.095833,25.7150,-84.8850,0738,0.28,-0.33,0.4328,139.6859
1984-10-19 14:48:00 UTC,2445993.116667,25.7150,-84.8850,0738,0.00,0.00,0.0000,0.0000
1984-10-19 15:18:00 UTC,2445993.137500,25.7150,-84.8850,0738,-0.65,1.00,1.1927,326.9761
1984-10-19 15:48:00 UTC,2445993.158333,25.7150,-84.8850,0738,-1.07,2.20,2.4464,334.0634
1984-10-19 16:18:00 UTC,2445993.179167,25.7150,-84.8850,0738,-0.40,1.80,1.8439,347.4712
1984-10-19 16:48:00 UTC,2445993.200000,25.7150,-84.8850,0738,-0.63,1.73,1.8411,339.9903
1984-10-19 17:18:00 UTC,2445993.220833,25.7150,-84.8850,0738,-0.70,2.30,2.4042,343.0725
1984-10-19 17:48:00 UTC,2445993.241667,25.7150,-84.8850,0738,-1.03,3.50,3.6484,343.6016
1984-10-19 18:18:00 UTC,2445993.262500,25.7150,-84.8850,0738,-0.70,3.58,3.6478,348.9365
1984-10-19 18:48:00 UTC,2445993.283333,25.7150,-84.8850,0738,-0.80,4.80,4.8662,350.5377
1984-10-19 19:18:00 UTC,2445993.304167,25.7150,-84.8850,0738,-0.68,4.20,4.2547,350.8033
1984-10-19 19:48:00 UTC,2445993.325000,25.7150,-84.8850,0738,-0.88,7.80,7.8495,353.5631
1984-10-19 20:18:00 UTC,2445993.345833,25.7150,-84.8850,0738,-0.70,7.20,7.2339,354.4470
1984-10-19 20:48:00 UTC,2445993.366667,25.7150,-84.8850,0738,-0.40,6.68,6.6920,356.5732
1984-10-19 21:18:00 UTC,2445993.387500,25.7150,-84.8850,0738,0.78,4.80,4.8630,9.2299
1984-10-19 21:48:00 UTC,2445993.408333,25.7150,-84.8850,0738,1.20,7.80,7.8918,8.7462
1984-10-19 22:18:00 UTC,2445993.429167,25.7150,-84.8850,0738,0.70,4.80,4.8508,8.2971
1984-10-19 22:48:00 UTC,2445993.450000,25.7150,-84.8850,0738,0.80,2.30,2.4352,19.1790
1984-10-19 23:18:00 UTC,2445993.470833,25.7150,-84.8850,0738,1.05,2.20,2.4377,25.5139
1984-10-19 23:48:00 UTC,2445993.491667,25.7150,-84.8850,0738,0.00,0.00,0.0000,0.0000
1984-10-20 00:18:00 UTC,2445993.512500,25.7150,-84.8850,0738,0.15,0.60,0.6185,14.0362
1984-10-20 00:48:00 UTC,2445993.533333,25.7150,-84.8850,0738,0.10,0.60,0.6083,9.4623
1984-10-20 01:18:00 UTC,2445993.554167,25.7150,-84.8850,0738,0.15,1.20,1.2093,7.1250
1984-10-20 01:48:00 UTC,2445993.575000,25.7150,-84.8850,0738,0.00,0.00,0.0000,0.0000
1984-10-20 02:18:00 UTC,2445993.595833,25.7150,-84.8850,0738,0.30,2.40,2.4187,7.1250
1984-10-20 02:48:00 UTC,2445993.616667,25.7150,-84.8850,0738,0.28,1.80,1.8216,8.8418
1984-10-20 03:18:00 UTC,2445993.637500,25.7150,-84.8850,0738,0.00,0.00,0.0000,0.0000
1984-10-20 03:48:00 UTC,2445993.658333,25.7150,-84.8850,0738,0.30,2.40,2.4187,7.1250
1984-10-20 04:18:00 UTC,2445993.679167,25.7150,-84.8850,0738,0.10,1.20,1.2042,4.7636
1984-10-20 04:48:00 UTC,2445993.700000,25.7150,-84.8850,0738,0.05,2.40,2.4005,1.1935
1984-10-20 05:18:00 UTC,2445993.720833,25.7150,-84.8850,0738,0.20,2.40,2.4083,4.7636
1984-10-20 05:48:00 UTC,2445993.741667,25.7150,-84.8850,0738,0.23,1.80,1.8146,7.2817
1984-10-20 06:18:00 UTC,2445993.762500,25.7150,-84.8850,0738,0.20,2.40,2.4083,4.7636
1984-10-20 06:48:00 UTC,2445993.783333,25.7150,-84.8850,0738,0.05,1.20,1.2010,2.3859
1984-10-20 07:18:00 UTC,2445993.804167,25.7150,-84.8850,0738,0.05,0.60,0.6021,4.7636
1984-10-20 07:48:00 UTC,2445993.825000,25.7150,-84.8850,0738,0.00,0.00,0.0000,0.0000
1984-10-20 08:18:00 UTC,2445993.845833,25.7150,-84.8850,0738,0.00,0.00,0.0000,0.0000
1984-10-20 08:48:00 UTC,2445993.866667,25.7150,-84.8850,0738,0.00,-0.85,0.8500,180.0000
1984-10-20 09:18:00 UTC,2445993.887500,25.7150,-84.8850,0738,0.13,-0.85,0.8599,171.3045
1984-10-20 09:48:00 UTC,2445993.908333,25.7150,-84.8850,0738,0.00,0.00,0.0000,0.0000
1984-10-20 10:18:00 UTC,2445993.929167,25.7150,-84.8850,0738,0.00,0.00,0.0000,0.0000
1984-10-20 10:48:00 UTC,2445993.950000,25.7150,-84.8850,0738,0.00,0.00,0.0000,0.0000
1984-10-20 11:18:00 UTC,2445993.970833,25.7150,-84.8850,0738,0.08,-1.28,1.2825,176.4237
1984-10-20 11:48:00 UTC,2445993.991667,25.7150,-84.8850,0738,0.00,0.00,0.0000,0.0000
1984-10-20 12:18:00 UTC,2445994.012500,25.7150,-84.8850,0738,-0.13,-0.40,0.4206,198.0042
1984-10-20 12:48:00 UTC,2445994.033333,25.7150,-84.8850,0738,0.00,0.00,0.0000,0.0000
1984-10-20 13:18:00 UTC,2445994.054167,25.7150,-84.8850,0738,-0.30,-1.70,1.7263,190.0080
1984-10-20 13:48:00 UTC,2445994.075000,25.7150,-84.8850,0738,-0.23,-1.28,1.3005,190.1866
1984-10-20 14:18:00 UTC,2445994.095833,25.7150,-84.8850,0738,-0.90,-0.90,1.2728,225.0000
1984-10-20 14:48:00 UTC,2445994.116667,25.7150,-84.8850,0738,-0.75,-0.98,1.2341,217.4271
1984-10-20 15:18:00 UTC,2445994.137500,25.7150,-84.8850,0738,-1.00,-1.40,1.7205,215.5377
1984-10-20 15:48:00 UTC,2445994.158333,25.7150,-84.8850,0738,-0.68,-1.05,1.2510,212.9279
1984-10-20 16:18:00 UTC,2445994.179167,25.7150,-84.8850,0738,-0.80,-1.50,1.7000,208.0725
1984-10-20 16:48:00 UTC,2445994.200000,25.7150,-84.8850,0738,-0.60,-1.60,1.7088,200.5561
1984-10-20 17:18:00 UTC,2445994.220833,25.7150,-84.8850,0738,-0.20,-1.70,1.7117,186.7098
1984-10-20 17:48:00 UTC,2445994.241667,25.7150,-84.8850,0738,0.80,0.25,0.8382,72.6460
1984-10-20 18:18:00 UTC,2445994.262500,25.7150,-84.8850,0738,1.28,0.10,1.2839,85.5328
1984-10-20 18:48:00 UTC,2445994.283333,25.7150,-84.8850,0738,1.70,-0.20,1.7117,96.7098
1984-10-20 19:18:00 UTC,2445994.304167,25.7150,-84.8850,0738,0.33,-0.28,0.4328,130.3141
1984-10-20 19:48:00 UTC,2445994.325000,25.7150,-84.8850,0738,-0.43,0.68,0.8045,327.6927
1984-10-20 20:18:00 UTC,2445994.345833,25.7150,-84.8850,0738,1.00,-1.40,1.7205,144.4623
1984-10-20 20:48:00 UTC,2445994.366667,25.7150,-84.8850,0738,0.20,-0.38,0.4294,152.2415
1984-10-20 21:18:00 UTC,2445994.387500,25.7150,-84.8850,0738,-0.25,0.55,0.6042,335.5561
1984-10-20 21:48:00 UTC,2445994.408333,25.7150,-84.8850,0738,-0.23,0.58,0.6239,338.3691
1984-10-20 22:18:00 UTC,2445994.429167,25.7150,-84.8850,0738,0.00,0.00,0.0000,0.0000
1984-10-20 22:48:00 UTC,2445994.450000,25.7150,-84.8850,0738,-0.13,0.60,0.6139,347.7749
1984-10-20 23:18:00 UTC,2445994.470833,25.7150,-84.8850,0738,-0.15,1.80,1.8062,355.2364
1984-10-20 23:48:00 UTC,2445994.491667,25.7150,-84.8850,0738,0.05,1.20,1.2010,2.3859
1984-10-21 00:18:00 UTC,2445994.512500,25.7150,-84.8850,0738,0.03,-0.68,0.6807,177.4739
1984-10-21 00:48:00 UTC,2445994.533333,25.7150,-84.8850,0738,0.00,0.00,0.0000,0.0000
1984-10-21 01:18:00 UTC,2445994.554167,25.7150,-84.8850,0738,0.20,-0.80,0.8246,165.9637
1984-10-21 01:48:00 UTC,2445994.575000,25.7150,-84.8850,0738,-0.10,0.35,0.3640,344.0546
1984-10-21 02:18:00 UTC,2445994.595833,25.7150,-84.8850,0738,0.00,0.00,0.0000,0.0000
1984-10-21 02:48:00 UTC,2445994.616667,25.7150,-84.8850,0738,0.00,0.00,0.0000,0.0000
1984-10-21 03:18:00 UTC,2445994.637500,25.7150,-84.8850,0738,-0.10,1.20,1.2042,355.2364
1984-10-21 03:48:00 UTC,2445994.658333,25.7150,-84.8850,0738,0.05,0.60,0.6021,4.7636
1984-10-21 04:18:00 UTC,2445994.679167,25.7150,-84.8850,0738,0.08,-1.28,1.2825,176.4237
1984-10-21 04:48:00 UTC,2445994.700000,25.7150,-84.8850,0738,-0.03,-0.43,0.4310,183.9909
1984-10-21 05:18:00 UTC,2445994.720833,25.7150,-84.8850,0738,0.15,-1.28,1.2888,173.3161
1984-10-21 05:48:00 UTC,2445994.741667,25.7150,-84.8850,0738,0.23,-0.80,0.8324,163.9601
1984-10-21 06:18:00 UTC,2445994.762500,25.7150,-84.8850,0738,0.25,-0.80,0.8382,162.6460
1984-10-21 06:48:00 UTC,2445994.783333,25.7150,-84.8850,0738,0.70,-1.50,1.6553,154.9831
1984-10-21 07:18:00 UTC,2445994.804167,25.7150,-84.8850,0738,0.60,-1.60,1.7088,159.4439
1984-10-21 07:48:00 UTC,2445994.825000,25.7150,-84.8850,0738,0.60,-1.60,1.7088,159.4439
1984-10-21 08:18:00 UTC,2445994.845833,25.7150,-84.8850,0738,0.15,-0.40,0.4272,159.4439
1984-10-21 08:48:00 UTC,2445994.866667,25.7150,-84.8850,0738,1.00,-1.40,1.7205,144.4623
1984-10-21 09:18:00 UTC,2445994.887500,25.7150,-84.8850,0738,0.80,-1.50,1.7000,151.9275
1984-10-21 09:48:00 UTC,2445994.908333,25.7150,-84.8850,0738,0.90,-0.90,1.2728,135.0000
1984-10-21 10:18:00 UTC,2445994.929167,25.7150,-84.8850,0738,0.98,-0.83,1.2843,130.2625
1984-10-21 10:48:00 UTC,2445994.950000,25.7150,-84.8850,0738,1.40,-1.00,1.7205,125.5377
1984-10-21 11:18:00 UTC,2445994.970833,25.7150,-84.8850,0738,1.50,-0.80,1.7000,118.0725
1984-10-21 11:48:00 UTC,2445994.991667,25.7150,-84.8850,0738,1.50,-0.70,1.6553,115.0169
1984-10-21 12:18:00 UTC,2445995.012500,25.7150,-84.8850,0738,1.05,-0.75,1.2903,125.5377
1984-10-21 12:48:00 UTC,2445995.033333,25.7150,-84.8850,0738,0.00,0.00,0.0000,0.0000
1984-10-21 13:18:00 UTC,2445995.054167,25.7150,-84.8850,0738,0.23,-0.35,0.4188,146.6894
1984-10-21 13:48:00 UTC,2445995.075000,25.7150,-84.8850,0738,0.00,0.00,0.0000,0.0000
1984-10-21 14:18:00 UTC,2445995.095833,25.7150,-84.8850,0738,0.00,0.00,0.0000,0.0000
1984-10-21 14:48:00 UTC,2445995.116667,25.7150,-84.8850,0738,0.00,0.00,0.0000,0.0000
1984-10-21 15:18:00 UTC,2445995.137500,25.7150,-84.8850,0738,0.33,-0.28,0.4328,130.3141
1984-10-21 15:48:00 UTC,2445995.158333,25.7150,-84.8850,0738,-0.48,0.38,0.6122,308.3675
1984-10-21 16:18:00 UTC,2445995.179167,25.7150,-84.8850,0738,0.18,-0.18,0.2546,135.0000
1984-10-21 16:48:00 UTC,2445995.200000,25.7150,-84.8850,0738,0.00,0.00,0.0000,0.0000
1984-10-21 17:18:00 UTC,2445995.220833,25.7150,-84.8850,0738,0.33,-0.28,0.4328,130.3141
1984-10-21 17:48:00 UTC,2445995.241667,25.7150,-84.8850,0738,0.20,-0.15,0.2500,126.8699
1984-10-21 18:18:00 UTC,2445995.262500,25.7150,-84.8850,0738,0.83,-0.98,1.2843,139.7374
1984-10-21 18:48:00 UTC,2445995.283333,25.7150,-84.8850,0738,0.53,-0.65,0.8387,140.8067
1984-10-21 19:18:00 UTC,2445995.304167,25.7150,-84.8850,0738,0.83,-0.98,1.2843,139.7374
1984-10-21 19:48:00 UTC,2445995.325000,25.7150,-84.8850,0738,0.28,-0.33,0.4328,139.6859
1984-10-21 20:18:00 UTC,2445995.345833,25.7150,-84.8850,0738,0.75,-0.98,1.2341,142.5729
1984-10-21 20:48:00 UTC,2445995.366667,25.7150,-84.8850,0738,0.28,-0.33,0.4328,139.6859
1984-10-21 21:18:00 UTC,2445995.387500,25.7150,-84.8850,0738,0.83,-0.98,1.2843,139.7374
1984-10-21 21:48:00 UTC,2445995.408333,25.7150,-84.8850,0738,0.83,-0.98,1.2843,139.7374
1984-10-21 22:18:00 UTC,2445995.429167,25.7150,-84.8850,0738,0.50,-0.65,0.8201,142.4314
1984-10-21 22:48:00 UTC,2445995.450000,25.7150,-84.8850,0738,0.40,-0.75,0.8500,151.9275
1984-10-21 23:18:00 UTC,2445995.470833,25.7150,-84.8850,0738,0.15,-1.28,1.2888,173.3161
1984-10-21 23:48:00 UTC,2445995.491667,25.7150,-84.8850,0738,0.00,-0.43,0.4300,180.0000
1984-10-22 00:18:00 UTC,2445995.512500,25.7150,-84.8850,0738,-0.15,-0.85,0.8631,190.0080
1984-10-22 00:48:00 UTC,2445995.533333,25.7150,-84.8850,0738,-0.07,-0.25,0.2596,195.6423
1984-10-22 01:18:00 UTC,2445995.554167,25.7150,-84.8850,0738,0.00,-0.85,0.8500,180.0000
1984-10-22 01:48:00 UTC,2445995.575000,25.7150,-84.8850,0738,-0.15,-0.85,0.8631,190.0080
1984-10-22 02:18:00 UTC,2445995.595833,25.7150,-84.8850,0738,0.00,0.00,0.0000,0.0000
1984-10-22 02:48:00 UTC,2445995.616667,25.7150,-84.8850,0738,0.15,0.58,0.5991,14.5002
1984-10-22 03:18:00 UTC,2445995.637500,25.7150,-84.8850,0738,0.00,0.00,0.0000,0.0000
1984-10-22 03:48:00 UTC,2445995.658333,25.7150,-84.8850,0738,-0.30,-0.80,0.8544,200.5561
1984-10-22 04:18:00 UTC,2445995.679167,25.7150,-84.8850,0738,-0.80,-1.50,1.7000,208.0725
1984-10-22 04:48:00 UTC,2445995.700000,25.7150,-84.8850,0738,-0.93,-1.40,1.6807,213.5955
1984-10-22 05:18:00 UTC,2445995.720833,25.7150,-84.8850,0738,-0.90,-1.40,1.6643,212.7352
1984-10-22 05:48:00 UTC,2445995.741667,25.7150,-84.8850,0738,-1.28,-0.30,1.3147,256.8094
1984-10-22 06:18:00 UTC,2445995.762500,25.7150,-84.8850,0738,-1.60,-0.50,1.6763,252.6460
1984-10-22 06:48:00 UTC,2445995.783333,25.7150,-84.8850,0738,-1.50,-0.78,1.6907,242.5256
1984-10-22 07:18:00 UTC,2445995.804167,25.7150,-84.8850,0738,-1.13,0.60,1.2794,297.9671
1984-10-22 07:48:00 UTC,2445995.825000,25.7150,-84.8850,0738,-0.20,1.70,1.7117,353.2902
1984-10-22 08:18:00 UTC,2445995.845833,25.7150,-84.8850,0738,-0.07,1.28,1.2819,356.8698
1984-10-22 08:48:00 UTC,2445995.866667,25.7150,-84.8850,0738,0.00,0.00,0.0000,0.0000
1984-10-22 09:18:00 UTC,2445995.887500,25.7150,-84.8850,0738,0.00,0.00,0.0000,0.0000
1984-10-22 09:48:00 UTC,2445995.908333,25.7150,-84.8850,0738,0.00,0.00,0.0000,0.0000
1984-10-22 10:18:00 UTC,2445995.929167,25.7150,-84.8850,0738,0.00,0.00,0.0000,0.0000
1984-10-22 10:48:00 UTC,2445995.950000,25.7150,-84.8850,0738,0.00,0.00,0.0000,0.0000
1984-10-22 11:18:00 UTC,2445995.970833,25.7150,-84.8850,0738,0.60,0.60,0.8485,45.0000
1984-10-22 11:48:00 UTC,2445995.991667,25.7150,-84.8850,0738,0.00,0.00,0.0000,0.0000
1984-10-22 12:18:00 UTC,2445996.012500,25.7150,-84.8850,0738,0.00,0.00,0.0000,0.0000
1984-10-22 12:48:00 UTC,2445996.033333,25.7150,-84.8850,0738,0.00,0.00,0.0000,0.0000
1984-10-22 13:18:00 UTC,2445996.054167,25.7150,-84.8850,0738,-0.60,-0.03,0.6007,267.1376
1984-10-22 13:48:00 UTC,2445996.075000,25.7150,-84.8850,0738,-1.80,0.23,1.8146,277.2817
1984-10-22 14:18:00 UTC,2445996.095833,25.7150,-84.8850,0738,-2.40,0.60,2.4739,284.0363
1984-10-22 14:48:00 UTC,2445996.116667,25.7150,-84.8850,0738,-2.00,1.40,2.4413,304.9920
1984-10-22 15:18:00 UTC,2445996.137500,25.7150,-84.8850,0738,-2.00,1.30,2.3854,303.0239
1984-10-22 15:48:00 UTC,2445996.158333,25.7150,-84.8850,0738,-1.90,1.53,2.4394,308.8432
1984-10-22 16:18:00 UTC,2445996.179167,25.7150,-84.8850,0738,-2.25,2.05,3.0438,312.3370
1984-10-22 16:48:00 UTC,2445996.200000,25.7150,-84.8850,0738,-2.05,2.23,3.0291,317.4082
1984-10-22 17:18:00 UTC,2445996.220833,25.7150,-84.8850,0738,-1.70,1.70,2.4042,315.0000
1984-10-22 17:48:00 UTC,2445996.241667,25.7150,-84.8850,0738,-0.70,1.00,1.2207,325.0080
1984-10-22 18:18:00 UTC,2445996.262500,25.7150,-84.8850,0738,-0.80,0.90,1.2042,318.3665
1984-10-22 18:48:00 UTC,2445996.283333,25.7150,-84.8850,0738,-2.10,2.95,3.6211,324.5543
1984-10-22 19:18:00 UTC,2445996.304167,25.7150,-84.8850,0738,-1.05,1.45,1.7903,324.0903
1984-10-22 19:48:00 UTC,2445996.325000,25.7150,-84.8850,0738,-0.30,0.53,0.6090,330.4885
1984-10-22 20:18:00 UTC,2445996.345833,25.7150,-84.8850,0738,-0.68,1.20,1.3793,330.4612
1984-10-22 20:48:00 UTC,2445996.366667,25.7150,-84.8850,0738,-1.35,2.00,2.4130,325.9807
1984-10-22 21:18:00 UTC,2445996.387500,25.7150,-84.8850,0738,-0.50,1.10,1.2083,335.5561
1984-10-22 21:48:00 UTC,2445996.408333,25.7150,-84.8850,0738,-0.07,0.18,0.1931,338.7495
1984-10-22 22:18:00 UTC,2445996.429167,25.7150,-84.8850,0738,-0.18,0.58,0.6073,342.7585
1984-10-22 22:48:00 UTC,2445996.450000,25.7150,-84.8850,0738,-0.25,1.20,1.2258,348.2317
1984-10-22 23:18:00 UTC,2445996.470833,25.7150,-84.8850,0738,-0.45,1.73,1.7876,345.4196
1984-10-22 23:48:00 UTC,2445996.491667,25.7150,-84.8850,0738,-0.07,2.40,2.4010,358.3293
1984-10-23 00:18:00 UTC,2445996.512500,25.7150,-84.8850,0738,0.10,2.40,2.4021,2.3859
1984-10-23 00:48:00 UTC,2445996.533333,25.7150,-84.8850,0738,0.08,1.80,1.8018,2.5448
1984-10-23 01:18:00 UTC,2445996.554167,25.7150,-84.8850,0738,0.20,2.40,2.4083,4.7636
1984-10-23 01:48:00 UTC,2445996.575000,25.7150,-84.8850,0738,0.00,1.80,1.8000,0.0000
1984-10-23 02:18:00 UTC,2445996.595833,25.7150,-84.8850,0738,0.10,1.20,1.2042,4.7636
1984-10-23 02:48:00 UTC,2445996.616667,25.7150,-84.8850,0738,-0.03,0.60,0.6007,357.1376
1984-10-23 03:18:00 UTC,2445996.637500,25.7150,-84.8850,0738,0.00,0.00,0.0000,0.0000
1984-10-23 03:48:00 UTC,2445996.658333,25.7150,-84.8850,0738,-0.15,-0.85,0.8631,190.0080
1984-10-23 04:18:00 UTC,2445996.679167,25.7150,-84.8850,0738,0.00,0.00,0.0000,0.0000
1984-10-23 04:48:00 UTC,2445996.700000,25.7150,-84.8850,0738,-0.13,-0.40,0.4206,198.0042
1984-10-23 05:18:00 UTC,2445996.720833,25.7150,-84.8850,0738,-0.15,-0.40,0.4272,200.5561
1984-10-23 05:48:00 UTC,2445996.741667,25.7150,-84.8850,0738,-0.07,-0.43,0.4357,189.2461
1984-10-23 06:18:00 UTC,2445996.762500,25.7150,-84.8850,0738,-0.15,-1.70,1.7066,185.0425
1984-10-23 06:48:00 UTC,2445996.783333,25.7150,-84.8850,0738,1.20,-1.20,1.6971,135.0000
1984-10-23 07:18:00 UTC,2445996.804167,25.7150,-84.8850,0738,-0.35,0.75,0.8276,334.9831
1984-10-23 07:48:00 UTC,2445996.825000,25.7150,-84.8850,0738,0.00,0.00,0.0000,0.0000
1984-10-23 08:18:00 UTC,2445996.845833,25.7150,-84.8850,0738,0.00,0.00,0.0000,0.0000
1984-10-23 08:48:00 UTC,2445996.866667,25.7150,-84.8850,0738,0.00,0.00,0.0000,0.0000
1984-10-23 09:18:00 UTC,2445996.887500,25.7150,-84.8850,0738,0.00,0.00,0.0000,0.0000
1984-10-23 09:48:00 UTC,2445996.908333,25.7150,-84.8850,0738,0.00,-0.60,0.6000,180.0000
1984-10-23 10:18:00 UTC,2445996.929167,25.7150,-84.8850,0738,0.00,-1.80,1.8000,180.0000
1984-10-23 10:48:00 UTC,2445996.950000,25.7150,-84.8850,0738,-0.10,-0.60,0.6083,189.4623
1984-10-23 11:18:00 UTC,2445996.970833,25.7150,-84.8850,0738,-0.60,-1.73,1.8311,199.1276
1984-10-23 11:48:00 UTC,2445996.991667,25.7150,-84.8850,0738,-1.20,-2.10,2.4187,209.7449
1984-10-23 12:18:00 UTC,2445997.012500,25.7150,-84.8850,0738,0.00,0.00,0.0000,0.0000
1984-10-23 12:48:00 UTC,2445997.033333,25.7150,-84.8850,0738,0.00,0.00,0.0000,0.0000
1984-10-23 13:18:00 UTC,2445997.054167,25.7150,-84.8850,0738,0.00,0.00,0.0000,0.0000
1984-10-23 13:48:00 UTC,2445997.075000,25.7150,-84.8850,0738,-0.55,0.25,0.6042,294.4440
1984-10-23 14:18:00 UTC,2445997.095833,25.7150,-84.8850,0738,-2.00,1.40,2.4413,304.9920
1984-10-23 14:48:00 UTC,2445997.116667,25.7150,-84.8850,0738,-2.10,1.23,2.4337,300.3581
1984-10-23 15:18:00 UTC,2445997.137500,25.7150,-84.8850,0738,-3.43,2.45,4.2151,305.5377
1984-10-23 15:48:00 UTC,2445997.158333,25.7150,-84.8850,0738,-3.25,2.73,4.2445,310.0303
1984-10-23 16:18:00 UTC,2445997.179167,25.7150,-84.8850,0738,-2.80,3.23,4.2747,319.0789
1984-10-23 16:48:00 UTC,2445997.200000,25.7150,-84.8850,0738,-3.00,3.80,4.8415,321.7098
1984-10-23 17:18:00 UTC,2445997.220833,25.7150,-84.8850,0738,-2.00,2.27,3.0254,318.6181
1984-10-23 17:48:00 UTC,2445997.241667,25.7150,-84.8850,0738,-2.15,2.13,3.0264,314.7323
1984-10-23 18:18:00 UTC,2445997.262500,25.7150,-84.8850,0738,-3.90,2.90,4.8600,306.6341
1984-10-23 18:48:00 UTC,2445997.283333,25.7150,-84.8850,0738,-2.78,2.35,3.6402,310.2086
1984-10-23 19:18:00 UTC,2445997.304167,25.7150,-84.8850,0738,-1.80,1.68,2.4622,313.0251
1984-10-23 19:48:00 UTC,2445997.325000,25.7150,-84.8850,0738,-2.73,2.40,3.6350,311.3194
1984-10-23 20:18:00 UTC,2445997.345833,25.7150,-84.8850,0738,-2.48,3.48,4.2733,324.5247
1984-10-23 20:48:00 UTC,2445997.366667,25.7150,-84.8850,0738,-1.70,3.23,3.6501,332.2415
1984-10-23 21:18:00 UTC,2445997.387500,25.7150,-84.8850,0738,-0.78,2.30,2.4287,341.2666
1984-10-23 21:48:00 UTC,2445997.408333,25.7150,-84.8850,0738,-1.10,3.45,3.6211,342.3156
1984-10-23 22:18:00 UTC,2445997.429167,25.7150,-84.8850,0738,-0.20,1.20,1.2166,350.5377
1984-10-23 22:48:00 UTC,2445997.450000,25.7150,-84.8850,0738,-0.10,0.60,0.6083,350.5377